User: anonymous   Login
Location: Unspecified
(0.0000°N, 0.0000°E)
Time: 05:27:15
(UTC+00:00)
Language:

RS-13 - Orbit

View from above orbital plane
View from above orbital plane
View from above satellite
View from above satellite

Ground track
Ground track

The orbit data is extracted from the following two-line orbital elements,

1 21089U 91007A   18018.35683424  .00000036  00000-0  22133-4 0  9994
2 21089  82.9238  98.0551 0028314 226.0825 204.7334 13.74655137352178
Epoch (UTC): 18 January 2018 08:33:50
Eccentricity: 0.0028314
inclination: 82.9238°
perigee height: 962 km
apogee height: 1004 km
right ascension of ascending node: 98.0551°
argument of perigee: 226.0825°
revolutions per day: 13.74655137
mean anomaly at epoch: 204.7334°
orbit number at epoch: 35217

The dashed part of the orbit path shows where the satellite is in the earth's shadow,  

DLR